Regional Weather Roundup
Issued by NWS

Home | Current Version | Previous Version | Text Only | Print | Product List | Glossary On
Versions: 1 2 3 4 5 6 7 8 9 10 11 12 13 14 15 16 17 18 19 20 21 22 23 24 25 26 27 28 29 30 31 32 33 34 35 36 37 38 39 40 41 42 43 44 45 46 47 48 49 50
000
ASUS43 KMPX 050010
RWRMN
WEATHER ROUNDUP FOR MINNESOTA
NATIONAL WEATHER SERVICE TWIN CITIES/CHANHASSEN MN
700 PM CDT TUE AUG 04 2015


NOTE: "FAIR" INDICATES FEW OR NO CLOUDS BELOW 12,000 FEET WITH NO
SIGNIFICANT WEATHER AND/OR OBSTRUCTIONS TO VISIBILITY. N/A MEANS
CURRENT SKY AND/OR WEATHER CONDITIONS ARE NOT AVAILABLE.

MNZ060>063-068>070-050100-
   Twin Cities Metro

CITY           SKY/WX    TMP DP  RH WIND       PRES   REMARKS
TWIN CITIES    MOSUNNY   79  50  36 W10       29.97S
6HR MIN TEMP:  78; 6HR MAX TEMP:  82;

ST PAUL        MOSUNNY   77  51  40 NW9       29.97R
CRYSTAL        SUNNY     81  50  33 NW9       29.96R
BLAINE         MOSUNNY   79  52  38 NW7       29.97R
LAKEVILLE      SUNNY     75  55  50 W7        29.99R
EDEN PRAIRIE   SUNNY     79  52  38 W6        29.97S
6HR MIN TEMP:  78; 6HR MAX TEMP:  82;

SOUTH ST PAUL  CLOUDY    80  48  33 NW8       29.97R
LAKE ELMO      FAIR      77  54  44 NW10      29.98S
$$
MNZ001>005-007-008-013>017-022>024-027-028-050100-
   Northwest Minnesota

CITY           SKY/WX    TMP DP  RH WIND       PRES   REMARKS
BEMIDJI        SUNNY     71  51  48 N7        30.01S
HALLOCK        SUNNY     73  52  46 N7        30.00F
ROSEAU         SUNNY     70  59  68 E7        30.02S
WARROAD        SUNNY     66  55  68 E7        30.04S
THIEF RVR FALL SUNNY     73  52  46 NE6       30.01S
CROOKSTON      SUNNY     75  52  43 N6        30.00S
FOSSTON        SUNNY     77  54  44 NE3       30.01S
DETROIT LAKES  SUNNY     73  50  43 N5        30.02S
MOORHEAD       SUNNY     75  54  46 NE6       30.00S
PARK RAPIDS    SUNNY     77  50  38 N8        30.00F
MAHNOMEN       FAIR      73  54  51 N5        30.00S
$$
MNZ006-009>011-018-025>026-050100-
   North Central Minnesota

CITY           SKY/WX    TMP DP  RH WIND       PRES   REMARKS
BAUDETTE       SUNNY     67  52  58 NW8       30.02S
FLAG ISLAND    SUNNY     66  50  55 NE3       30.02S
INTL FALLS     PTSUNNY   64  49  57 E3        30.03S
6HR MIN TEMP:  61; 6HR MAX TEMP:  67;

WASKISH        SUNNY     70  52  52 N3        30.01F
BIG FORK       SUNNY     66  52  59 NE5       30.02S
LONGVILLE      SUNNY     72  52  49 NW5       30.01S
GRAND RAPIDS   SUNNY     72  48  43 N7        30.01S
CRANE LAKE     CLOUDY    63  52  67 N1        30.04F
ORR            MOSUNNY   64  45  48 CALM      30.01S
COOK           SUNNY     64  48  55 N5        30.03S
WALKER         FAIR      70  52  51 NE5       30.01S
$$
MNZ012-019>021-037-050100-
   Northeast Minnesota

CITY           SKY/WX    TMP DP  RH WIND       PRES   REMARKS
DULUTH         PTSUNNY   66  51  58 SE9       30.00R
6HR MIN TEMP:  66; 6HR MAX TEMP:  74;

ELY            CLOUDY    61  48  63 CALM      30.04R
HIBBING        SUNNY     68  50  52 N12       30.01R
EVELETH        SUNNY     64  48  55 N9        30.03R
DULUTH HARBOR  PTSUNNY   55  52  88 N6        30.00S
TWO HARBORS    PTSUNNY   64  55  72 SE6       29.99R
SILVER BAY     SUNNY     68  52  56 CALM      29.99S
GRAND MARAIS     N/A     57  51  80 CALM      30.00S
G MARAIS ARPRT CLOUDY    59  46  63 NW3       30.03F
$$
MNZ029>031-032-039>041-046>048-054>057-064-050100-
   West Central Minnesota

CITY           SKY/WX    TMP DP  RH WIND       PRES   REMARKS
FERGUS FALLS   SUNNY     77  52  41 N3        29.98S
WHEATON        SUNNY     77  48  36 CALM      29.99F
MORRIS         SUNNY     79  50  36 CALM      29.98F
ALEXANDRIA     SUNNY     78  50  37 VRB5      30.01F
ELBOW LAKE     FAIR      76  52  42 N3        29.99F
WADENA         SUNNY     75  50  41 NW9       30.00S
GLENWOOD       SUNNY     77  52  41 W5        30.01S
APPLETON       SUNNY     81  48  32 NE3       29.97F
BENSON         SUNNY     79  48  34 CALM      29.99S
ORTONVILLE     SUNNY     79  52  38 CALM      29.98F
MADISON        MOSUNNY   79  54  41 CALM      29.98F
WILLMAR        FAIR      79  54  41 W3        30.00F
$$
MNZ033>034-036-042>043-049>051-058-059-050100-
   Central Minnesota

CITY           SKY/WX    TMP DP  RH WIND       PRES   REMARKS
ST CLOUD       MOSUNNY   79  51  37 NW8       29.97F
6HR MIN TEMP:  77; 6HR MAX TEMP:  82;

SAUK CENTRE    FAIR      77  52  42 NW5       29.99F
PAYNESVILLE    SUNNY     75  49  39 W3        29.99F
AITKIN         SUNNY     73  52  46 NW5       29.99R
PINE RIVER     SUNNY     73  55  53 N9        30.03S
BRAINERD       SUNNY     76  52  43 N9        30.00R
STAPLES        SUNNY     75  48  38 N5        29.99S
LONG PRAIRIE   FAIR      75  50  41 NW3       30.00S
LITCHFIELD     SUNNY     79  52  38 NW3       30.00S
BUFFALO        MOSUNNY   78  50  37 W9        29.99S
MAPLE LAKE     SUNNY     77  55  47 W5        29.99F
$$
MNZ037-044-045-052-053-050100-
   East Central Minnesota

CITY           SKY/WX    TMP DP  RH WIND       PRES   REMARKS
PRINCETON      MOSUNNY   79  54  41 N5        29.98S
MORA           SUNNY     73  52  46 NW7       30.00S
CAMBRIDGE      SUNNY     79  57  47 N5        29.96S
RUSH CITY      SUNNY     75  54  47 N5        29.98S
MOOSE LAKE     MOSUNNY   72  50  46 N6        29.97S
HINCKLEY       FAIR      73  54  49 NW5       29.98S
CLOQUET        SUNNY     72  46  40 N6        30.00S
MCGREGOR       SUNNY     73  52  46 N10       30.00S
$$
MNZ071>073-080-081-089-090-097-098-050100-
   Southwest Minnesota

CITY           SKY/WX    TMP DP  RH WIND       PRES   REMARKS
MONTEVIDEO     SUNNY     81  55  41 CALM      30.00F
GRANITE FALLS  SUNNY     77  58  51 CALM      30.01S
CANBY          MOSUNNY   76  56  48 E6        30.00F
MARSHALL       MOSUNNY   79  54  41 E8        30.00F
REDWOOD FALLS  MOSUNNY   79  52  38 CALM      29.99S
OLIVIA         SUNNY     73  52  46 CALM      29.99F
PIPESTONE      MOSUNNY   77  59  53 SE6       30.01R
WINDOM         PTSUNNY   75  55  50 CALM      30.01S
WORTHINGTON    PTSUNNY   75  57  53 SE3       30.01S
JACKSON        PTSUNNY   77  55  47 E5        30.02S
TRACY          PTSUNNY   77  59  53 NE5       30.00F
SLAYTON        PTSUNNY   76  55  49 CALM      30.02S
$$
MNZ065>067-074>077-082>085-091>093-050100-
   South Central Minnesota

CITY           SKY/WX    TMP DP  RH WIND       PRES   REMARKS
MANKATO        MOSUNNY   75  48  38 CALM      30.00S
NEW ULM        MOSUNNY   77  48  36 CALM      29.99F
ST JAMES       PTSUNNY   77  55  47 CALM      30.01S
FAIRMONT       PTSUNNY   75  54  46 E6        30.00F
GLENCOE        SUNNY     78  54  43 NW5       29.99S
FARIBAULT      SUNNY     75  55  50 W5        30.00S
OWATONNA       MOSUNNY   75  55  50 CALM      30.01S
WASECA         MOSUNNY   72  57  60 CALM      30.02S
ALBERT LEA     MOSUNNY   73  54  49 CALM      30.01S
$$
MNZ078>079-086>088-094>096-050100-
   Southeast Minnesota

CITY           SKY/WX    TMP DP  RH WIND       PRES   REMARKS
ROCHESTER      SUNNY     73  56  54 NW6       30.01S
6HR MIN TEMP:  72; 6HR MAX TEMP:  77;

RED WING       SUNNY     79  52  38 W3        29.96S
STANTON        SUNNY     76  55  46 W5        29.98S
DODGE CENTER   MOSUNNY   73  50  43 NW5       30.01S
WINONA         SUNNY     77  52  41 NW7       29.97S
AUSTIN         MOSUNNY   73  55  53 CALM      30.01S
PRESTON        MOSUNNY   73  55  52 CALM      30.01S
$$
ABBREVIATIONS USED IN REMARKS
   TC - TEMPERATURES IN CELSIUS
  WCI - WIND CHILL INDEX
   HX - HEAT INDEX
  VSB - VISIBILITY
$$



USA.gov is the U.S. government's official web portal to all federal, state and local government web resources and services.